This is the latest recevied weather packets stored in our database for station/object KD0SBN. If no packets are shown the sender has not sent any weather packets the latest 1 day(s).
| Time | Temp. | Humidity | Pressure | Rain* | Wind** | Luminosity | Snow |
|---|---|---|---|---|---|---|---|
| 1778066420 | 2.22° C | 92% | 1015.1 hPa | 0 mm | - | - | - |
| 1778064603 | 2.22° C | 93% | 1015 hPa | 0 mm | - | - | - |
| 1778063392 | 2.78° C | 93% | 1015 hPa | 0 mm | - | - | - |
| 1778063090 | 2.78° C | 92% | 1015.1 hPa | 0 mm | - | - | - |
| 1778061577 | 3.33° C | 88% | 1014.9 hPa | 0 mm | - | - | - |
| 1778060971 | 3.33° C | 91% | 1014.7 hPa | 0 mm | - | - | - |
| 1778060670 | 2.78° C | 93% | 1014.8 hPa | 0 mm | - | - | - |
| 1778060367 | 2.78° C | 94% | 1014.9 hPa | 0 mm | - | - | - |
| 1778060065 | 2.78° C | 95% | 1014.8 hPa | 0 mm | - | - | - |
| 1778059460 | 2.78° C | 95% | 1014.9 hPa | 0 mm | - | - | - |
| 1778058855 | 2.78° C | 96% | 1015 hPa | 0 mm | - | - | - |
| 1778057946 | 2.78° C | 96% | 1014.9 hPa | 0 mm | - | - | - |
| 1778056732 | 2.78° C | 97% | 1014.9 hPa | 0 mm | - | - | - |
| 1778056127 | 2.78° C | 97% | 1014.8 hPa | 2.29 mm | - | - | - |
| 1778055519 | 2.78° C | 97% | 1014.5 hPa | 0 mm | - | - | - |
| 1778055218 | 2.78° C | 97% | 1014.7 hPa | 0 mm | - | - | - |
| 1778054915 | 2.78° C | 97% | 1014.8 hPa | 0 mm | - | - | - |
| 1778053098 | 2.78° C | 97% | 1014.9 hPa | 1.78 mm | - | - | - |
| 1778052492 | 2.78° C | 97% | 1014.8 hPa | 1.78 mm | - | - | - |
| 1778052190 | 2.78° C | 96% | 1014.9 hPa | 1.78 mm | - | - | - |
| 1778050979 | 3.33° C | 96% | 1014.9 hPa | 1.78 mm | - | - | - |
| 1778050374 | 3.89° C | 96% | 1015.1 hPa | 1.78 mm | - | - | - |
| 1778050070 | 3.89° C | 96% | 1015 hPa | 1.78 mm | - | - | - |
| 1778049766 | 3.89° C | 96% | 1014.8 hPa | 0 mm | - | - | - |
| 1778049161 | 3.89° C | 96% | 1015 hPa | 1.78 mm | - | - | - |
* Rain latest hour (hover to see other rain measurements)
** Current wind speed in m/s (hover to see current wind gust speed)